Other Surface Observations
Issued by NWS Charleston, SC

Home | Current Version | Previous Version | Text Only | Print | Product List | Glossary On
Versions: 1 2 3 4 5 6 7 8 9 10 11 12 13 14 15 16 17 18 19 20 21 22 23 24 25 26 27 28 29 30 31 32 33 34 35 36 37 38 39 40 41 42 43 44 45 46 47 48 49 50
000
SXUS52 KCHS 062312
OSOCHS

MARINE OBSERVATIONS
NATIONAL WEATHER SERVICE CHARLESTON SC
700 PM EDT WED MAY 06 2015

...DOWNTOWN CHARLESTON AND HARBOR...

CITY           SKY/WX    TMP DP  RH WIND       PRES   REMARKS
WATERFRONT PRK NOT AVBL
FORT JOHNSON   NOT AVBL

...LAKE MOULTRIE...

CITY           SKY/WX    TMP DP  RH WIND       PRES   REMARKS
PINOPOLIS      NOT AVBL

...LAKE AND SUPPLEMENTAL COASTAL OBSERVATIONS...

STATION/POSITION TIME  TEMP    WIND        PRES    WAVE   SWELL
                       AIR SEA DIR/SP/G            HT/PER HT/PER/DIR
                 (UTC) (F)     (DEG/KT/KT) (MB)    (FT/S) (FT/S/D)
FORT PULASKI     2200   72 71   50/ 15/ 18 1019.5F
SAPELO ISLAND    2200   74      50/ 11     1019.0S
UPR LAKE MARION  NOT AVBL
WINYAH BAY       2145   72      60/ 13     1019.0
LAKE MURRAY      2200   79      70/  5/  8 1018.6F
ACE BASIN NERRS  NOT AVBL


...C-MAN AND BUOY OBSERVATIONS...

STATION/POSITION TIME  TEMP    WIND        PRES    WAVE   SWELL
                       AIR SEA DIR/SP/G            HT/PER HT/PER/DIR
                 (UTC) (F)     (DEG/KT/KT) (MB)    (FT/S) (FT/S/D)
BUOY 41004       2250   72 73   30/ 21/ 25 1017.2F   9/ 9   5/ 9
BUOY 41008       2250   71 70   50/ 12/ 14 1018.4F   6/ 8   5/110/ 8
FOLLY BEACH CMAN 2300   71      60/ 18/ 20 1018.9F
CAPERS NS BUOY   2208   71      60/ 17/ 23 1019.3F
FRIPP NS BUOY    2200   71      60/ 19/ 23 1018.2F
5E ST. MARYS GA  2221      71                N/A     6/ 7


STATION/POSITION TIME  TEMP    WIND        PRES    WAVE   SWELL
                       AIR SEA DIR/SP/G            HT/PER HT/PER/DIR
                 (UTC) (F)     (DEG/KT/KT) (MB)    (FT/S) (FT/S/D)
FRYING PAN BUOY  2250   72 71   60/ 17/ 21 1019.0F   7/ 8   3/160/11
BUOY 41025       2250   71 74   90/ 14/ 16 1020.6F   4/ 7   2/130/ 7
CAPE LOOKOUT NC  2300   69      60/  9/  9 1019.8F
BUOY 41002       2250   70 70  120/ 16/ 17 1016.1F   8/ 8   5/130/ 8
BUOY 41010       2220   73 78  350/ 19/ 21 1014.2F
ST AUGUSTINE FL  2300   71 73   10/ 19/ 21 1018.1F

$$



USA.gov is the U.S. government's official web portal to all federal, state and local government web resources and services.